JA1CAY-13 Weather Reports


time (UTC)temp
F
wind
direction
speed
knots
gust
knots
rain 1hr
in
rain 24hr
in
rain mn
in
humidity
%
barometer
mb
20260509185727 47 309 0.0 1.7 0.00 0.00 0.00 75 1018.8
20260509184826 47 302 0.9 3.5 0.00 0.00 0.00 75 1018.6
20260509183926 47 308 1.7 3.5 0.00 0.00 0.00 75 1018.6
20260509183026 47 298 0.9 2.6 0.00 0.00 0.00 76 1018.6
20260509181226 48 0 0.0 0.0 0.00 0.00 0.00 73 1018.3
20260509180326 48 310 0.0 0.9 0.00 0.00 0.00 73 1018.2
20260509175427 48 300 0.9 2.6 0.00 0.00 0.00 73 1018.0
20260509174527 49 300 0.9 3.5 0.00 0.00 0.00 73 1017.8
20260509173626 49 0 0.0 0.0 0.00 0.00 0.00 71 1017.8
20260509172726 49 0 0.0 0.0 0.00 0.00 0.00 70 1017.7
20260509171826 49 0 0.0 0.0 0.00 0.00 0.00 69 1017.7
20260509170926 50 309 0.9 2.6 0.00 0.00 0.00 69 1017.6
20260509170026 50 305 1.7 3.5 0.00 0.00 0.00 68 1017.5
20260509165127 50 300 0.9 3.5 0.00 0.00 0.00 69 1017.5
20260509164226 50 293 0.0 1.7 0.00 0.00 0.00 67 1017.4
20260509155726 52 310 0.9 3.5 0.00 0.00 0.00 64 1017.2
20260509153026 52 318 0.9 2.6 0.00 0.00 0.00 61 1017.2
20260509152126 53 312 0.0 2.6 0.00 0.00 0.00 61 1017.2
20260509150326 53 319 0.9 2.6 0.00 0.00 0.00 59 1017.1
20260509145426 54 317 0.9 3.5 0.00 0.00 0.00 58 1017.1
20260509144526 54 337 0.9 3.5 0.00 0.00 0.00 57 1016.8
20260509143627 54 298 0.9 2.6 0.00 0.00 0.00 56 1016.7
20260509142727 54 295 0.0 2.6 0.00 0.00 0.00 55 1016.6
20260509141826 55 308 0.9 4.3 0.00 0.00 0.00 54 1016.5
20260509140026 56 304 1.7 6.1 0.00 0.00 0.00 52 1016.3
20260509135126 56 312 0.9 3.5 0.00 0.00 0.00 51 1016.2
20260509134226 56 294 1.7 4.3 0.00 0.00 0.00 50 1016.1
20260509133326 57 296 3.5 6.1 0.00 0.00 0.00 50 1016.1
20260509132426 57 302 3.5 6.1 0.00 0.00 0.00 48 1015.9
20260509131526 58 296 2.6 6.1 0.00 0.00 0.00 47 1015.8
20260509130626 58 297 3.5 6.1 0.00 0.00 0.00 46 1015.8
20260509125726 58 291 3.5 6.1 0.00 0.00 0.00 46 1015.8
20260509124826 59 305 3.5 6.1 0.00 0.00 0.00 46 1015.7
20260509123927 59 325 3.5 7.0 0.00 0.00 0.00 45 1015.6
20260509123026 59 308 4.3 7.0 0.00 0.00 0.00 45 1015.5
20260509121226 60 311 2.6 7.0 0.00 0.00 0.00 43 1015.4
20260509120325 60 322 3.5 7.0 0.00 0.00 0.00 43 1015.4
20260509115426 61 303 3.5 7.0 0.00 0.00 0.00 44 1015.2
20260509114526 62 324 2.6 6.1 0.00 0.00 0.00 42 1015.2
20260509113626 62 322 4.3 8.7 0.00 0.00 0.00 38 1015.2
20260509112727 63 306 4.3 7.8 0.00 0.00 0.00 39 1015.1
20260509111826 64 312 2.6 6.1 0.00 0.00 0.00 36 1014.9
20260509110926 65 306 2.6 8.7 0.00 0.00 0.00 34 1014.8
20260509105126 66 281 5.2 9.6 0.00 0.00 0.00 31 1014.4
20260509104226 66 279 4.3 10.4 0.00 0.00 0.00 39 1014.3
20260509101526 67 233 3.5 9.6 0.00 0.00 0.00 47 1013.6
20260509100626 67 239 3.5 10.4 0.00 0.00 0.00 46 1013.4
20260509095726 67 247 2.6 7.0 0.00 0.00 0.00 41 1013.1
20260509094827 68 253 1.7 6.1 0.00 0.00 0.00 40 1012.8
20260509093926 69 270 2.6 7.8 0.00 0.00 0.00 39 1012.8
20260509093026 69 250 2.6 7.8 0.00 0.00 0.00 38 1012.6
20260509092126 70 266 2.6 7.8 0.00 0.00 0.00 28 1012.4
20260509090326 71 320 6.1 12.2 0.00 0.00 0.00 25 1011.8
20260509081826 73 335 7.0 13.0 0.00 0.00 0.00 25 1010.7
20260509080927 73 340 6.1 13.0 0.00 0.00 0.00 25 1010.5
20260509075127 74 341 7.0 13.9 0.00 0.00 0.00 24 1010.4
20260509074226 74 335 9.6 16.5 0.00 0.00 0.00 24 1010.2
20260509073326 74 330 7.8 13.9 0.00 0.00 0.00 25 1010.2
20260509072426 75 322 8.7 18.2 0.00 0.00 0.00 24 1010.0
20260509071526 75 322 8.7 18.2 0.00 0.00 0.00 24 1009.9
20260509070627 76 341 8.7 16.5 0.00 0.00 0.00 23 1009.7
20260509064827 76 330 8.7 20.0 0.00 0.00 0.00 24 1009.6
20260509063027 77 354 8.7 19.1 0.00 0.00 0.00 21 1009.4
20260509060326 77 359 10.4 19.1 0.00 0.00 0.00 22 1009.5
20260509054526 77 2 11.3 22.6 0.00 0.00 0.00 21 1009.3
20260509053627 78 355 11.3 18.2 0.00 0.00 0.00 21 1009.4
20260509052727 78 350 10.4 19.1 0.00 0.00 0.00 20 1009.2
20260509051827 78 345 9.6 18.2 0.00 0.00 0.00 22 1009.4
20260509050926 78 354 11.3 20.0 0.00 0.00 0.00 22 1009.4
20260509050026 78 343 10.4 20.9 0.00 0.00 0.00 21 1009.1
20260509045126 78 342 11.3 21.7 0.00 0.00 0.00 21 1009.3
20260509044226 78 344 10.4 19.1 0.00 0.00 0.00 21 1009.5
20260509043326 77 341 12.2 24.3 0.00 0.00 0.00 21 1009.6
20260509042426 77 341 13.0 23.5 0.00 0.00 0.00 21 1009.6
20260509041526 77 3 11.3 21.7 0.00 0.00 0.00 22 1009.5
20260509040626 77 5 11.3 21.7 0.00 0.00 0.00 22 1009.4
20260509035726 78 358 11.3 19.1 0.00 0.00 0.00 20 1009.4
20260509034826 78 357 10.4 17.4 0.00 0.00 0.00 23 1009.5
20260509033926 77 4 10.4 18.2 0.00 0.00 0.00 22 1009.5
20260509033027 77 354 12.2 22.6 0.00 0.00 0.00 23 1009.5
20260509032126 77 358 12.2 20.0 0.00 0.00 0.00 24 1009.6
20260509031226 76 354 12.2 20.9 0.00 0.00 0.00 24 1009.4
20260509030326 76 1 9.6 18.2 0.00 0.00 0.00 27 1009.5
20260509025426 76 353 10.4 20.9 0.00 0.00 0.00 28 1009.5
20260509024526 76 357 10.4 22.6 0.00 0.00 0.00 28 1009.9
20260509022727 76 334 9.6 15.6 0.00 0.00 0.00 28 1010.2
20260509021826 76 333 7.8 13.9 0.00 0.00 0.00 30 1010.2
20260509020926 75 330 8.7 17.4 0.00 0.00 0.00 31 1010.4
20260509020026 75 314 7.8 15.6 0.00 0.00 0.00 31 1010.3
20260509014226 74 1 6.1 14.8 0.00 0.00 0.00 32 1010.4
20260509012426 73 347 7.8 15.6 0.00 0.00 0.00 32 1010.7
20260509011526 73 345 7.8 16.5 0.00 0.00 0.00 33 1010.7
20260509010626 73 2 7.0 15.6 0.00 0.00 0.00 33 1010.7
20260509005727 72 343 6.1 15.6 0.00 0.00 0.00 34 1010.6
20260509004826 72 356 6.1 15.6 0.00 0.00 0.00 34 1010.6
20260509003925 71 334 7.0 16.5 0.00 0.00 0.00 35 1010.3
20260509002126 70 318 10.4 18.2 0.00 0.00 0.00 34 1010.0
20260509001226 70 318 11.3 19.1 0.00 0.00 0.00 34 1009.9
20260508234526 69 324 9.6 20.0 0.00 0.00 0.00 35 1009.5
20260508233626 69 342 7.8 18.2 0.00 0.00 0.00 36 1009.5
20260508232726 68 344 8.7 14.8 0.00 0.00 0.00 35 1009.4
20260508231826 68 336 7.8 16.5 0.00 0.00 0.00 36 1009.2
20260508230926 67 347 9.6 16.5 0.00 0.00 0.00 37 1009.2
20260508230026 67 349 9.6 16.5 0.00 0.00 0.00 37 1009.0
20260508225126 66 341 8.7 19.1 0.00 0.00 0.00 37 1008.8
20260508224226 66 348 7.0 17.4 0.00 0.00 0.00 36 1008.7
20260508223326 65 345 7.0 16.5 0.00 0.00 0.00 38 1008.6
20260508215726 62 354 1.7 9.6 0.00 0.00 0.00 40 1008.4
20260508214826 61 267 2.6 8.7 0.00 0.00 0.00 38 1008.1
20260508213927 62 314 2.6 11.3 0.00 0.00 0.00 39 1008.2
20260508213026 62 89 2.6 7.8 0.00 0.00 0.00 37 1008.1
20260508210327 60 219 2.6 10.4 0.00 0.00 0.00 39 1007.4
20260508205425 59 345 1.7 4.3 0.00 0.00 0.00 42 1007.6
20260508203627 59 67 4.3 10.4 0.00 0.00 0.00 38 1007.1
20260508202727 59 331 1.7 6.1 0.00 0.00 0.00 38 1007.1
20260508201826 60 233 1.7 6.1 0.00 0.00 0.00 37 1006.9
20260508200026 59 31 2.6 7.8 0.00 0.00 0.00 37 1006.4
20260508195126 59 351 4.3 13.0 0.00 0.00 0.00 37 1006.4
20260508194226 59 4 6.1 13.0 0.00 0.00 0.00 37 1006.2
20260508193326 59 358 5.2 13.0 0.00 0.00 0.00 36 1005.9
20260508192426 59 355 6.1 13.0 0.00 0.00 0.00 36 1005.9
20260508191526 59 348 5.2 13.0 0.00 0.00 0.00 36 1005.8